Dewpoint
48 48 47 47 47 47 46 44 44 45 45 39 36 35 34 35 35 36 35 33 33 30 27 25 24 24 24 23 22 22 21 21 21 22 22 21 21 21 21 21 21 20 20 19 19 19 18 18 20 21 22 21 19 19 19 19 18 18 17 17 18 18 18 18 18 18 18 18 19
48 48 48 48 48 46 45 44 44 44 43 39 37 37 37 38 38 38 37 32 28 27 26 25 24 24 23 22 22 21 21 20 20 21 21 20 21 21 21 21 21 20 19 19 18 18 18 18 20 21 22 21 20 19 18 19 18 18 17 17 17 18 19 19 19 18 18 19 19
49 48 48 48 47 46 44 43 44 42 40 39 38 38 39 39 37 36 33 28 27 26 25 24 24 23 22 21 21 21 20 20 19 19 19 20 20 20 21 21 20 20 20 19 18 18 18 18 19 20 21 21 19 19 18 19 18 17 16 16 17 18 19 19 19 19 19 19 19
49 48 48 47 46 46 45 45 43 41 39 39 39 39 38 37 35 32 29 27 26 25 24 24 23 23 22 21 20 20 20 21 19 19 19 19 20 20 20 20 20 20 20 20 19 19 18 18 19 20 20 19 18 18 18 19 18 17 17 18 18 19 19 19 19 19 20 20 20
49 48 48 47 46 46 46 47 44 41 38 38 37 37 36 34 33 30 28 26 25 24 24 24 23 23 23 21 20 19 19 20 21 20 19 19 19 20 20 19 19 19 20 20 20 19 18 18 19 19 19 18 18 18 18 18 17 17 18 19 19 19 19 19 19 20 21 21 21
48 48 48 47 46 46 47 47 42 39 38 37 36 35 33 33 30 28 26 25 25 24 24 24 24 23 22 20 19 19 19 19 20 20 19 19 19 19 19 19 19 19 19 20 20 19 19 17 19 19 19 19 17 17 17 17 17 17 18 19 20 20 21 20 21 21 22 22 21
48 47 47 46 45 45 46 43 40 38 37 36 34 33 31 29 28 26 25 25 24 24 24 24 23 21 20 19 19 19 19 19 19 19 19 19 19 19 19 19 19 19 19 19 19 19 18 17 19 19 19 19 19 18 18 18 18 18 18 18 19 21 21 22 22 23 23 23 22
47 46 46 44 44 43 42 41 39 37 36 34 33 31 29 28 27 25 24 24 24 23 23 23 21 21 20 20 19 19 19 19 19 19 19 19 19 19 19 19 18 18 18 18 18 18 17 17 18 19 19 19 19 19 19 19 19 19 18 18 19 21 22 23 23 24 24 23 23
46 46 45 44 43 42 40 38 37 36 34 33 31 29 27 27 26 25 24 23 24 23 23 22 21 21 20 20 19 19 19 18 18 18 19 19 18 18 18 18 18 18 18 18 17 17 16 16 18 18 18 19 19 19 19 19 19 19 19 19 20 21 22 23 23 23 24 24 23
45 44 43 42 42 40 38 37 35 34 33 31 29 28 27 28 26 24 24 24 24 23 22 21 20 20 20 19 19 19 19 19 18 18 18 19 18 18 18 18 17 17 17 17 17 16 16 16 16 17 17 18 18 18 19 19 19 19 19 20 21 21 22 23 23 23 23 24 23
44 43 42 41 39 37 36 35 34 33 31 29 28 27 27 27 25 24 24 24 22 21 21 21 20 19 19 19 19 19 19 19 19 18 18 18 18 18 18 18 17 16 16 17 17 17 16 16 16 17 17 18 18 18 19 19 19 19 20 21 22 22 22 23 23 23 23 23 24
42 41 40 38 37 36 35 34 33 31 29 28 26 25 25 24 24 24 23 22 21 20 20 21 20 19 19 20 19 19 19 18 18 17 17 17 17 18 18 17 17 16 16 16 17 17 17 17 17 17 17 18 18 19 19 19 20 20 20 21 22 22 22 22 22 22 23 23 23
40 39 37 36 35 34 33 33 31 28 27 26 25 24 24 23 23 22 21 20 20 20 20 21 21 20 20 20 19 19 19 18 17 17 17 17 17 17 17 17 16 16 16 17 18 18 18 18 18 17 17 18 18 19 19 19 20 20 20 20 21 21 20 20 20 21 23 24 23
38 37 36 35 34 33 32 30 28 27 26 25 24 23 23 22 22 21 20 19 20 20 20 21 21 21 20 19 19 18 18 17 16 16 15 16 16 16 16 16 16 16 17 18 18 18 17 18 18 18 17 18 18 19 19 19 20 20 20 20 20 19 19 20 20 21 22 22 22
37 36 35 34 33 32 29 28 26 25 24 24 23 22 21 20 20 20 20 19 20 20 20 20 20 20 20 19 18 17 17 16 15 15 15 15 15 15 16 16 16 17 17 18 18 18 17 17 18 18 18 18 18 19 19 19 19 20 20 20 20 19 19 20 20 20 21 21 21
37 35 34 33 32 29 28 26 25 24 24 23 21 20 19 18 19 20 20 20 20 20 20 19 19 19 19 19 18 17 16 15 14 14 14 14 15 15 16 16 16 17 17 17 16 17 17 17 18 18 18 18 19 19 19 19 19 19 19 20 20 20 20 20 20 20 20 20 20
36 34 33 32 30 28 26 25 24 23 22 21 20 19 19 18 19 20 21 20 19 19 19 19 19 19 18 18 18 16 15 15 14 14 13 14 14 15 16 16 17 17 17 16 15 15 15 16 17 18 18 19 19 19 19 19 19 19 19 20 20 20 20 21 20 20 20 20 20
34 33 32 31 28 27 25 24 23 22 21 20 19 19 19 19 19 20 21 20 19 18 18 18 18 18 18 17 17 17 16 15 15 15 15 15 15 15 16 16 17 17 16 15 15 14 15 15 16 17 18 19 19 19 19 19 19 19 20 20 20 21 21 21 21 21 20 20 20
33 32 31 29 27 25 24 23 22 21 20 20 20 20 20 20 20 20 20 20 19 18 18 17 18 18 17 17 17 17 17 16 15 15 15 16 16 16 16 16 17 16 15 15 15 15 15 15 16 16 17 18 19 19 19 20 20 20 21 21 21 21 21 21 22 22 21 21 21
32 30 28 27 25 24 22 22 21 20 20 20 20 20 20 20 20 19 19 19 19 18 18 17 17 17 17 17 17 17 17 17 16 16 16 17 17 16 16 16 16 15 15 15 15 15 15 15 15 16 16 17 18 19 20 21 21 22 22 22 22 22 23 23 23 23 22 22 21
29 28 26 24 23 22 21 21 20 20 20 20 20 20 20 20 19 19 19 19 19 18 18 18 18 18 17 17 17 17 17 18 17 17 17 17 16 16 16 16 15 15 15 15 15 15 15 15 15 16 17 18 19 21 22 23 23 24 24 24 23 23 23 24 23 23 23 22 22
27 25 24 23 22 22 21 21 20 20 20 20 20 20 20 19 19 19 19 20 19 19 19 19 19 19 18 18 17 17 18 18 18 18 17 17 16 16 16 16 15 15 15 15 15 16 16 17 18 19 20 21 22 23 24 24 25 25 25 25 24 24 23 23 23 23 22 22 22
24 24 23 23 22 21 21 21 20 20 20 20 19 19 19 19 19 19 19 19 19 19 19 19 19 19 19 19 18 18 18 18 18 18 17 17 16 16 16 17 16 15 15 16 18 19 19 20 21 22 23 24 24 24 24 25 25 25 25 25 24 23 23 23 23 22 21 20 20
24 23 23 22 21 21 21 21 20 20 19 19 19 19 19 19 19 19 19 19 19 19 19 19 19 20 19 18 18 17 17 16 16 16 16 16 16 16 15 15 15 16 16 18 21 23 23 23 24 25 25 25 25 25 25 25 25 24 24 24 24 23 23 23 23 22 21 20 20
23 22 22 21 20 20 20 20 20 19 19 19 19 19 18 18 18 18 18 18 18 19 19 19 19 19 19 18 18 17 16 16 15 15 15 15 15 15 15 15 15 16 18 21 24 26 27 28 28 28 27 26 26 26 26 25 25 24 24 24 24 24 24 23 23 22 21 20 20
22 21 21 20 20 20 20 20 20 20 20 19 19 19 18 18 18 18 18 18 18 18 19 19 19 19 19 18 17 17 16 16 16 16 16 15 15 15 16 15 15 18 21 22 24 26 28 30 31 30 29 28 27 27 26 25 24 24 24 25 25 25 24 24 23 22 21 20 19
21 21 20 20 19 19 19 20 20 20 19 19 19 19 19 18 18 17 17 17 18 18 18 18 18 18 18 17 17 16 17 17 17 17 16 15 15 16 16 16 16 19 23 25 25 27 28 30 31 31 30 29 28 28 27 25 25 25 26 26 26 25 24 24 22 21 20 19 19
21 20 20 19 19 19 19 19 19 19 19 19 19 19 18 18 17 17 17 17 18 18 18 17 17 17 17 17 17 17 17 18 18 18 17 17 17 17 17 16 17 19 21 23 25 27 29 31 31 31 31 30 29 28 28 26 25 25 25 25 25 24 24 23 21 20 19 19 19
21 20 19 19 19 19 19 19 18 18 19 19 19 18 18 17 17 17 17 17 17 17 17 18 18 17 17 17 17 18 18 18 18 18 18 18 18 18 17 17 16 19 23 26 26 28 29 30 30 30 30 30 29 28 27 25 24 24 23 23 23 23 22 22 21 20 20 19 19
20 19 19 18 18 18 18 18 18 18 18 18 18 17 17 17 17 17 16 16 17 18 18 18 17 17 17 17 18 18 18 18 18 19 18 17 17 17 17 17 17 19 22 25 26 28 29 30 30 29 29 30 29 28 26 25 24 24 23 23 22 22 22 21 21 20 20 20 19
19 18 18 17 17 18 18 18 18 18 18 17 17 17 16 16 16 17 17 18 18 19 19 18 17 17 17 17 18 17 18 18 18 18 18 18 17 17 17 17 17 19 22 25 26 27 28 29 29 29 29 29 28 27 25 24 24 23 23 22 22 22 22 22 21 21 20 20 19
18 18 18 17 17 17 18 18 17 17 16 16 16 17 17 17 19 19 19 19 19 18 18 17 16 16 16 16 16 16 17 18 18 18 18 18 18 18 17 17 17 19 22 25 26 27 28 29 29 28 28 29 28 26 25 24 23 23 22 22 22 22 22 21 21 21 20 20 20
18 18 18 17 17 17 17 17 16 16 16 16 17 17 18 19 20 19 19 18 18 17 16 16 15 15 15 15 15 16 17 18 18 17 17 17 18 17 17 16 17 19 23 24 25 26 27 28 28 28 28 29 28 26 24 24 22 22 21 21 21 22 22 22 21 21 21 20 20
18 17 17 17 17 17 16 16 16 16 17 17 18 19 19 20 19 19 18 18 17 17 17 16 16 16 15 15 15 16 17 17 17 17 17 17 17 17 17 16 17 20 24 24 25 26 27 28 28 28 28 29 28 26 24 23 21 21 20 20 20 21 21 22 22 21 21 20 20
17 16 16 17 17 16 16 16 17 17 17 17 18 19 19 20 19 19 18 18 18 17 17 17 16 16 16 16 17 17 16 16 16 16 16 16 16 16 16 16 17 20 23 24 24 25 26 27 28 28 28 28 27 25 23 22 21 20 20 19 19 20 20 21 21 21 21 21 20
15 15 15 16 16 16 16 17 17 17 17 18 19 19 19 19 19 19 18 19 18 17 16 16 16 16 16 16 16 16 15 15 15 15 15 16 15 15 15 15 16 19 21 23 24 24 25 27 28 28 28 28 25 24 22 21 20 20 19 19 19 19 20 21 20 21 21 21 21
15 15 15 15 16 16 16 16 17 17 17 18 19 19 19 19 18 18 18 18 17 16 16 16 16 16 16 16 16 15 15 15 15 15 15 15 15 15 15 15 16 18 20 22 24 24 25 27 28 28 28 26 24 23 22 21 20 20 19 19 19 19 20 20 20 20 21 21 22
15 15 15 15 16 16 16 16 16 17 18 19 19 19 19 19 18 18 18 18 16 16 16 16 16 16 17 17 17 16 16 16 15 15 14 14 15 15 15 15 16 18 19 22 23 24 25 27 28 28 27 25 23 22 21 21 20 20 19 19 19 19 19 20 20 20 21 22 24
15 15 15 15 16 16 16 16 17 17 18 19 19 19 18 18 18 17 17 17 16 16 15 15 16 17 17 17 16 16 16 16 16 15 15 14 15 16 16 16 16 18 19 21 23 24 25 26 27 28 27 25 23 22 21 21 20 20 19 19 19 18 19 19 20 21 22 23 25
15 15 16 15 16 16 16 16 17 18 19 19 18 18 17 17 17 17 17 17 16 16 15 15 16 16 16 15 15 15 15 15 16 16 16 15 16 18 19 17 17 17 18 20 22 24 25 26 27 27 27 24 24 22 21 21 21 20 19 19 18 18 19 19 20 21 22 23 24
15 15 16 16 16 16 16 16 18 19 19 19 18 17 17 17 17 16 16 16 15 15 15 15 15 15 15 14 14 14 14 14 15 15 16 16 17 18 19 18 17 16 17 19 21 23 25 26 27 27 26 25 24 23 22 21 20 20 19 19 18 19 19 20 21 22 22 22 21